SL-16 DEB

Satellite information

Favourite Embed

Satellite Type and Status

DEBRISIN ORBIT

Key statistics

Satellite SL-16 DEB at a glance.

Uptime

12080

Days in orbit

Revolutions

≈ 13.8

Per day

Orbit

LEO

Low Earth Orbit

Inclination

71.0

Latest

Satellite identification and parameters

Extended collection of information and parameters for SL-16 DEB.

Object identification

Identified? True

Debris? True

Object name: SL-16 DEB

International designator: 1992-076E

Object number (NORAD): 22223

Object ID (CCSDS): 22223

Country: COMMONWEALTH OF INDEPENDENT STATES (CIS)

Current information (Y/N): Y

RCS size: SMALL

Orbital parameters

Period: 104.642 minutes

Inclination: 71.0386 deg

SMA: 7355.807 km

Apoapsis: 1118.703 km

Periapsis: 836.64 km

RAAN: 293.8862 deg

Eccentricy: 0.01917281

Argument of periapsis: 136.4983 deg

Mean anomaly: 340.9052 deg

Mean motion: 13.7612316 rev/day

Mean motion (dot): 0.00000099 rev/day2

B* drag term: 0.00012694532 1/REarth

Two-line elements (TLE)

Creation date: Dec. 14, 2025, 3:07 a.m.

Reference frame: TEME

Reference center: EARTH

Epoch: Dec. 13, 2025, 1:01 p.m. UTC

TLE line 0: 0 SL-16 DEB

TLE line 1: 1 22223U 92076E 25347.54249021 .00000099 00000-0 12695-3 0 9997

TLE line 2: 2 22223 71.0386 293.8862 0191728 136.4983 340.9052 13.76123160659674

Live tracking on map

Real-time ground track for satellite SL-16 DEB.

In-orbit conjunctions

A list of the most updated potential collisions computed for object SL-16 DEB.

Target Orbit TCA Probability of collision Miss distance Type
METEOR 2-3 LEO 2025-12-07 03:29:16 0.003813046 205.0 (m) PAYLOAD
CZ-6A DEB SSO 2025-01-16 07:39:09 0.0001772061 199.0 (m) DEBRIS
FENGYUN 1C DEB SSO 2024-09-25 12:33:07 0.0003383162 963.0 (m) DEBRIS

Associated space launch

Second generation ELING satellite

SL-16 DEB was lifted into orbit during the mission ‘Zenit-2 | Tselina-2 11’, on board a Zenit-2 space rocket.

The launch took place on Nov. 17, 1992, 7:47 a.m. from 45/1.

For more information about the launch, click the button.

Launch to space Zenit-2 | Tselina-2 11
Zenit-2 | Tselina-2 11

Agency: N/A

Status: Launch Successful

Launch date: Nov. 17, 1992, 7:47 a.m. UTC

Rocket: Zenit-2

Launch pad: 45/1

Location: Baikonur Cosmodrome, Republic of Kazakhstan

...

Latest news about this satellite

There are no fresh news available about this satellite. Check back as we update our databases every day.


Newsletter sign-up

Weekly statistics, charts and insights to help you stay on top of the space industry.